TimeEDT,TemperatureF,Dew PointF,Humidity,Sea Level PressureIn,VisibilityMPH,Wind Direction,Wind SpeedMPH,Gust SpeedMPH,PrecipitationIn,Events,Conditions,WindDirDegrees,DateUTC
12:51 AM,66.0,51.1,59,30.13,10.0,SSE,8.1,-,N/A,,Clear,150,2013-05-03 04:51:00
1:51 AM,64.0,51.1,63,30.13,10.0,SE,5.8,-,N/A,,Clear,130,2013-05-03 05:51:00
2:51 AM,63.0,50.0,63,30.12,10.0,ESE,5.8,-,N/A,,Clear,120,2013-05-03 06:51:00
3:51 AM,61.0,50.0,67,30.12,10.0,ESE,3.5,-,N/A,,Clear,110,2013-05-03 07:51:00
4:51 AM,57.9,50.0,75,30.12,10.0,ESE,3.5,-,N/A,,Clear,110,2013-05-03 08:51:00
5:51 AM,55.9,48.9,77,30.12,10.0,East,4.6,-,N/A,,Clear,100,2013-05-03 09:51:00
6:51 AM,54.0,48.0,80,30.13,10.0,ESE,4.6,-,N/A,,Clear,110,2013-05-03 10:51:00
7:51 AM,57.0,46.9,69,30.14,10.0,East,5.8,-,N/A,,Clear,100,2013-05-03 11:51:00
8:51 AM,59.0,46.0,62,30.14,10.0,ESE,5.8,-,N/A,,Clear,110,2013-05-03 12:51:00
9:51 AM,63.0,46.9,56,30.14,10.0,Variable,5.8,-,N/A,,Clear,0,2013-05-03 13:51:00
10:51 AM,66.0,48.0,52,30.12,10.0,ESE,5.8,-,N/A,,Clear,120,2013-05-03 14:51:00
11:51 AM,70.0,48.9,47,30.10,10.0,East,9.2,-,N/A,,Clear,100,2013-05-03 15:51:00
12:51 PM,73.0,43.0,34,30.08,10.0,ESE,12.7,17.3,N/A,,Clear,110,2013-05-03 16:51:00
1:51 PM,73.9,37.9,27,30.07,10.0,SSE,10.4,18.4,N/A,,Clear,150,2013-05-03 17:51:00
2:51 PM,75.0,37.0,25,30.05,10.0,ESE,8.1,17.3,N/A,,Clear,110,2013-05-03 18:51:00
3:51 PM,73.0,33.1,23,30.04,10.0,SSE,9.2,-,N/A,,Clear,160,2013-05-03 19:51:00
4:51 PM,73.0,34.0,24,30.04,10.0,ESE,11.5,20.7,N/A,,Clear,120,2013-05-03 20:51:00
5:51 PM,72.0,36.0,27,30.04,10.0,SE,5.8,-,N/A,,Clear,130,2013-05-03 21:51:00
6:51 PM,71.1,37.0,29,30.04,10.0,SE,9.2,-,N/A,,Clear,130,2013-05-03 22:51:00
7:51 PM,70.0,35.1,28,30.04,10.0,ESE,6.9,-,N/A,,Clear,120,2013-05-03 23:51:00
8:51 PM,66.9,34.0,30,30.06,10.0,SE,9.2,-,N/A,,Clear,130,2013-05-04 00:51:00
9:51 PM,66.0,37.0,34,30.07,10.0,ESE,11.5,20.7,N/A,,Clear,120,2013-05-04 01:51:00
10:51 PM,64.0,41.0,43,30.07,10.0,ESE,9.2,-,N/A,,Clear,120,2013-05-04 02:51:00
11:51 PM,63.0,43.0,48,30.06,10.0,ESE,9.2,-,N/A,,Clear,120,2013-05-04 03:51:00